[[{"header":{"parameterUnit":"m.s-1","parameterCategory":1,"la1":30.2991,"la2":30.254,"lo1":-89.0895,"lo2":-89.0444,"dy":0.0017,"dx":0.0017,"nx":28,"ny":28,"refTime":"2023-11-10T09:00:00:Z","depth":0,"parameterNumber":2,"parameterNumberName":"U-component_of_WINDS"},"data":[0,0,0,0,0,0,0,0,0,0,0,0,0,0,0,0,0,0,0,0,0,0,0,0,0,0,0,0,0,0,0,0,0,0,0,0,0,0,0,0,0,0,0,0,0,0,0,0,0,0,0,0,0,0,0,0,0,0,-0.6028,-0.6028,0,-0.6053,-0.6053,-0.6053,-0.5987,-0.5985,-0.5983,-0.5981,-0.6009,-0.6011,-0.6014,0,0,0,0,0,0,0,0,0,0,0,0,0,-0.5926,-0.5928,-0.6028,-0.6029,-0.6029,-0.6053,-0.6053,-0.6053,-0.5987,-0.5985,-0.5982,-0.598,-0.6008,-0.6011,-0.6014,0,0,0,0,0,0,0,0,0,0,0,0,0,-0.5963,-0.5929,-0.6028,-0.5999,-0.5996,-0.6053,-0.6053,-0.6053,-0.5988,-0.5984,-0.5981,-0.5978,-0.6007,-0.6011,-0.6015,-0.6102,0,0,-0.6027,-0.6029,0,0,0,0,0,0,0,0,-0.5961,-0.5966,-0.6003,-0.6001,-0.5998,-0.6013,-0.6027,-0.607,-0.5988,-0.5991,-0.5981,-0.5977,-0.6013,-0.6016,-0.6028,-0.6103,-0.6104,-0.6027,-0.603,-0.6031,-0.6032,0,0,0,0,0,0,0,-0.5958,-0.5965,-0.6038,-0.6003,-0.6,-0.5985,-0.5986,-0.6035,-0.6019,-0.599,-0.5986,-0.5989,-0.6011,-0.6024,-0.6028,-0.6105,-0.6027,-0.6031,-0.6033,-0.6035,-0.6252,-0.6255,0,0,0,0,0,0,-0.5959,-0.5963,-0.6037,-0.6039,-0.5971,-0.5989,-0.5991,-0.6012,-0.6018,-0.6016,-0.5992,-0.5986,-0.6019,-0.6023,-0.6029,-0.6131,-0.6031,-0.6035,-0.6037,-0.6249,-0.6253,-0.6256,0,0,0,0,0,0,-0.5957,-0.5966,-0.6036,-0.6,-0.6007,-0.5994,-0.6018,-0.6014,-0.6027,-0.602,-0.6017,-0.6008,-0.6016,-0.6023,-0.6084,-0.6131,-0.6037,-0.6041,-0.6245,-0.625,-0.6255,-0.6337,0,0,0,0,0,0,-0.5955,-0.5966,-0.5999,-0.6001,-0.601,-0.6091,-0.6021,-0.6017,-0.6033,-0.6026,-0.6034,-0.6032,-0.6014,-0.6078,-0.6088,-0.6135,-0.6044,-0.624,-0.6247,-0.6253,-0.633,-0.6344,-0.6356,0,0,0,0,0,-0.5951,-0.6021,-0.6001,-0.601,-0.605,-0.6093,-0.6098,-0.6076,-0.6037,-0.607,-0.6066,-0.6032,-0.6124,-0.6085,-0.6095,-0.6144,-0.6237,-0.6245,-0.6253,-0.6324,-0.6341,-0.6356,0,0,0,0,0,0,-0.6026,-0.6021,-0.5998,-0.6071,-0.6083,-0.6082,-0.6123,-0.6095,-0.6119,-0.6111,-0.6083,-0.6085,-0.6151,-0.6154,-0.611,-0.6229,-0.6174,-0.6184,-0.6225,-0.6241,-0.6254,-0.6253,-0.6047,0,0,0,0,0,-0.6051,-0.6086,-0.608,-0.6145,-0.6152,-0.6137,-0.6155,-0.6136,-0.6148,-0.6153,-0.6153,-0.6166,-0.6198,-0.6219,-0.6248,-0.6329,-0.633,-0.6368,-0.6381,-0.6392,-0.6401,-0.6444,-0.6461,-0.6281,-0.6281,-0.6281,0,0,-0.6103,-0.6105,-0.6129,-0.616,-0.6167,-0.6205,-0.6141,-0.6184,-0.6212,-0.616,-0.6217,-0.6217,-0.623,-0.6301,-0.6332,-0.6305,-0.6451,-0.6402,-0.641,-0.6414,-0.6454,-0.6471,-0.6486,-0.6286,-0.6285,-0.6285,0,0,-0.6218,-0.6222,-0.6277,-0.6285,-0.6296,-0.6285,-0.6298,-0.6301,-0.6299,-0.6355,-0.6317,-0.635,-0.6405,-0.6416,-0.6429,-0.6546,-0.6516,-0.6556,-0.6626,-0.6668,-0.6682,-0.6694,-0.6737,-0.6752,-0.6565,-0.6566,-0.6566,0,-0.6281,-0.6336,-0.6308,-0.6353,-0.6368,-0.6321,-0.6377,-0.6386,-0.6407,-0.6419,-0.6387,-0.6455,-0.6461,-0.6534,-0.6562,-0.6574,-0.6589,-0.6556,-0.6682,-0.6694,-0.6705,-0.6745,-0.6761,-0.657,-0.657,-0.6569,-0.6569,0,-0.6414,-0.6452,-0.6495,-0.6514,-0.6534,-0.6584,-0.6565,-0.6588,-0.6568,-0.656,-0.6619,-0.6623,-0.6652,-0.6668,-0.6649,-0.6738,-0.6721,-0.6686,-0.6631,-0.6728,-0.6765,-0.678,-0.6577,-0.6576,-0.6574,-0.6573,0,0,-0.6577,-0.658,-0.6597,-0.6605,-0.6613,-0.6642,-0.669,-0.6717,-0.6738,-0.6754,-0.6794,-0.6841,-0.6809,-0.6823,-0.6805,-0.6842,-0.6935,-0.6802,-0.6802,-0.6827,-0.7034,-0.7061,-0.7079,-0.6914,-0.6917,-0.6919,-0.7033,0,-0.669,-0.6771,-0.6748,-0.683,-0.6865,-0.682,-0.6862,-0.6872,-0.6866,-0.6896,-0.6889,-0.6923,-0.6878,-0.6886,-0.6921,-0.6916,-0.6976,-0.6907,-0.6952,-0.6954,-0.6951,-0.7098,-0.7127,-0.7234,-0.7047,-0.705,-0.7051,0,-0.6833,-0.6853,-0.6938,-0.694,-0.6954,-0.6992,-0.7015,-0.7043,-0.7053,-0.7046,-0.7062,-0.7036,-0.7083,-0.7027,-0.7093,-0.7047,-0.7063,-0.7064,-0.7067,-0.7071,-0.7009,-0.7107,-0.7268,-0.7284,-0.7074,-0.7072,-0.7071,0,-0.6944,-0.6993,-0.705,-0.7058,-0.7062,-0.7089,-0.7092,-0.7099,-0.7117,-0.7137,-0.7148,-0.7174,-0.7189,-0.7209,-0.7191,-0.7152,-0.726,-0.7202,-0.7256,-0.7257,-0.7282,-0.7281,-0.7448,-0.7291,-0.7291,-0.7291,-0.729,0,-0.7074,-0.7128,-0.71,-0.7135,-0.7194,-0.7167,-0.7226,-0.7224,-0.7231,-0.7265,-0.7228,-0.7262,-0.7235,-0.7266,-0.7252,-0.7308,-0.7315,-0.7311,-0.7307,-0.7315,-0.7316,-0.7327,-0.7319,-0.7295,-0.7294,-0.7293,-0.7293,0,-0.7209,-0.7192,-0.7251,-0.7249,-0.725,-0.7294,-0.7292,-0.7325,-0.7316,-0.736,-0.7369,-0.7355,-0.739,-0.7373,-0.7409,-0.74,-0.7473,-0.7458,-0.7469,-0.7466,-0.7521,-0.7517,-0.7702,-0.7726,-0.7553,-0.7555,-0.7556,0,-0.7293,-0.7333,-0.7335,-0.7355,-0.736,-0.7393,-0.741,-0.7385,-0.7405,-0.7419,-0.745,-0.7481,-0.7505,-0.7562,-0.7556,-0.7584,-0.757,-0.7633,-0.7574,-0.7581,-0.7572,-0.757,-0.7574,-0.7646,-0.7648,-0.7649,-0.7651,0,-0.7444,-0.7433,-0.7459,-0.7483,-0.7505,-0.7522,-0.7537,-0.7555,-0.753,-0.7554,-0.7588,-0.7607,-0.7643,-0.7675,-0.7699,-0.7702,-0.7673,-0.7669,-0.7683,-0.7692,-0.7697,-0.7696,-0.7503,-0.7665,-0.7664,-0.7663,-0.7662,-0.7661,-0.7556,-0.759,-0.7596,-0.7627,-0.7635,-0.7649,-0.7679,-0.7674,-0.7702,-0.7729,-0.7712,-0.7752,-0.7761,-0.779,-0.7797,-0.7829,-0.7804,-0.7825,-0.783,-0.7836,-0.7843,-0.7691,-0.7833,-0.7833,-0.7833,-0.7832,-0.7832,0,-0.7706,-0.7707,-0.7736,-0.7756,-0.7781,-0.7749,-0.7763,-0.7786,-0.7822,-0.7832,-0.7855,-0.7895,-0.7925,-0.7921,-0.7949,-0.7975,-0.7962,-0.7983,-0.7982,-0.7983,-0.7864,-0.7849,-0.7993,-0.7993,-0.7993,-0.7993,-0.7993,-0.7993,-0.7787,-0.7842,-0.7832,-0.7891,-0.7892,-0.7931,-0.7942,-0.7955,-0.7963,-0.8009,-0.8033,-0.803,-0.8034,-0.8062,-0.8088,-0.8086,-0.8099,-0.8125,-0.8118,-0.8007,-0.7991,-0.7976,-0.7962,-0.8128,-0.8128,-0.8235,-0.8236,-0.8237]},{"header":{"parameterUnit":"m.s-1","parameterCategory":1,"la1":30.2991,"la2":30.254,"lo1":-89.0895,"lo2":-89.0444,"dy":0.0017,"dx":0.0017,"nx":28,"ny":28,"refTime":"2023-11-10T09:00:00:Z","depth":0,"parameterNumber":3,"parameterNumberName":"V-component_of_WINDS"},"data":[0,0,0,0,0,0,0,0,0,0,0,0,0,0,0,0,0,0,0,0,0,0,0,0,0,0,0,0,0,0,0,0,0,0,0,0,0,0,0,0,0,0,0,0,0,0,0,0,0,0,0,0,0,0,0,0,0,0,-0.571,-0.5711,0,-0.5832,-0.5833,-0.5835,-0.5831,-0.5829,-0.5827,-0.5826,-0.5952,-0.5956,-0.5961,0,0,0,0,0,0,0,0,0,0,0,0,0,-0.5474,-0.5479,-0.571,-0.5712,-0.5713,-0.5832,-0.5833,-0.5835,-0.5831,-0.5829,-0.5827,-0.5825,-0.595,-0.5956,-0.5962,0,0,0,0,0,0,0,0,0,0,0,0,0,-0.5584,-0.548,-0.571,-0.5725,-0.5728,-0.5831,-0.5833,-0.5835,-0.5831,-0.5829,-0.5826,-0.5824,-0.5948,-0.5955,-0.5963,-0.6059,0,0,-0.5985,-0.5988,0,0,0,0,0,0,0,0,-0.5578,-0.5593,-0.5722,-0.5724,-0.5728,-0.5813,-0.5796,-0.591,-0.5832,-0.5792,-0.5826,-0.5823,-0.5908,-0.5918,-0.5947,-0.6065,-0.607,-0.5986,-0.599,-0.5994,-0.5996,0,0,0,0,0,0,0,-0.5571,-0.5588,-0.5758,-0.5723,-0.5727,-0.5726,-0.5739,-0.5818,-0.5863,-0.5795,-0.5795,-0.581,-0.5909,-0.594,-0.595,-0.6072,-0.5986,-0.5992,-0.5997,-0.6,-0.6274,-0.6277,0,0,0,0,0,0,-0.5559,-0.5582,-0.5754,-0.5762,-0.5645,-0.5732,-0.5747,-0.5788,-0.5862,-0.5871,-0.5812,-0.5809,-0.5928,-0.5941,-0.5954,-0.6072,-0.5993,-0.6,-0.6005,-0.6271,-0.6275,-0.6278,0,0,0,0,0,0,-0.5554,-0.5575,-0.5749,-0.5672,-0.5694,-0.5739,-0.5786,-0.5792,-0.5823,-0.5874,-0.5882,-0.5835,-0.5927,-0.5944,-0.6033,-0.6076,-0.6004,-0.601,-0.6268,-0.6272,-0.6276,-0.6307,0,0,0,0,0,0,-0.5548,-0.5573,-0.5611,-0.5673,-0.5698,-0.5826,-0.5789,-0.5796,-0.5835,-0.5833,-0.5898,-0.5906,-0.5926,-0.6022,-0.604,-0.6085,-0.6016,-0.6264,-0.627,-0.6275,-0.6303,-0.6312,-0.632,0,0,0,0,0,-0.5539,-0.5615,-0.5612,-0.5633,-0.5746,-0.5829,-0.5843,-0.5864,-0.5839,-0.5877,-0.5909,-0.5904,-0.6068,-0.6031,-0.6051,-0.6099,-0.6262,-0.6268,-0.6274,-0.6299,-0.631,-0.632,0,0,0,0,0,0,-0.5558,-0.5624,-0.5621,-0.572,-0.5768,-0.5828,-0.5877,-0.5876,-0.5933,-0.5929,-0.5952,-0.5967,-0.6056,-0.6086,-0.6044,-0.6195,-0.6161,-0.6172,-0.6173,-0.6184,-0.6193,-0.6185,-0.6022,0,0,0,0,0,-0.5573,-0.5635,-0.5689,-0.577,-0.5795,-0.5831,-0.5868,-0.588,-0.5932,-0.5953,-0.5992,-0.6042,-0.6105,-0.6146,-0.6206,-0.6306,-0.632,-0.6349,-0.6358,-0.6365,-0.6374,-0.6429,-0.6442,-0.6299,-0.6299,-0.6299,0,0,-0.5607,-0.565,-0.5688,-0.5775,-0.5815,-0.5878,-0.5849,-0.5918,-0.5965,-0.5963,-0.605,-0.6079,-0.6138,-0.6232,-0.6276,-0.626,-0.6416,-0.6373,-0.6378,-0.6384,-0.6437,-0.645,-0.6462,-0.6303,-0.6302,-0.6302,0,0,-0.5699,-0.5738,-0.581,-0.5849,-0.5908,-0.5932,-0.5948,-0.6008,-0.6028,-0.6114,-0.6114,-0.617,-0.6277,-0.6318,-0.6353,-0.6458,-0.6456,-0.6477,-0.6524,-0.6577,-0.6588,-0.6598,-0.6636,-0.6649,-0.6486,-0.6486,-0.6487,0,-0.5733,-0.5829,-0.5847,-0.5916,-0.5954,-0.5953,-0.6026,-0.6064,-0.614,-0.6166,-0.6147,-0.6281,-0.632,-0.6424,-0.6449,-0.6477,-0.6498,-0.6471,-0.6585,-0.6595,-0.6605,-0.6641,-0.6656,-0.6489,-0.6488,-0.6488,-0.6488,0,-0.5867,-0.5933,-0.5984,-0.6057,-0.6101,-0.6171,-0.62,-0.6242,-0.6248,-0.6273,-0.6361,-0.6407,-0.6476,-0.6501,-0.6509,-0.6606,-0.6594,-0.658,-0.6546,-0.6621,-0.6655,-0.6669,-0.6492,-0.6491,-0.6491,-0.649,0,0,-0.5979,-0.6058,-0.6077,-0.6109,-0.6173,-0.6225,-0.6294,-0.6361,-0.6397,-0.6448,-0.6508,-0.6597,-0.6583,-0.6623,-0.6635,-0.6681,-0.6761,-0.666,-0.6662,-0.6678,-0.687,-0.6882,-0.6898,-0.6758,-0.6761,-0.6763,-0.6866,0,-0.6079,-0.6203,-0.622,-0.6329,-0.639,-0.6389,-0.645,-0.6495,-0.652,-0.6575,-0.6601,-0.6665,-0.6642,-0.6665,-0.6711,-0.6742,-0.68,-0.6734,-0.6814,-0.6817,-0.6802,-0.6916,-0.6929,-0.7024,-0.6879,-0.6882,-0.6883,0,-0.6214,-0.6268,-0.6383,-0.6437,-0.6463,-0.6518,-0.658,-0.6632,-0.6683,-0.6697,-0.674,-0.6746,-0.6817,-0.6778,-0.6877,-0.6832,-0.6865,-0.6885,-0.6889,-0.6899,-0.6856,-0.693,-0.7055,-0.7069,-0.6905,-0.6903,-0.6901,0,-0.6284,-0.6386,-0.6468,-0.6495,-0.656,-0.6598,-0.6627,-0.6675,-0.6714,-0.6768,-0.6793,-0.6854,-0.6888,-0.6935,-0.6957,-0.6927,-0.7054,-0.7018,-0.7069,-0.7068,-0.7098,-0.7096,-0.7231,-0.7116,-0.7116,-0.7116,-0.7116,0,-0.6396,-0.6466,-0.65,-0.6551,-0.663,-0.6648,-0.6725,-0.6753,-0.6795,-0.6851,-0.6852,-0.6905,-0.6929,-0.6985,-0.7002,-0.7081,-0.7096,-0.711,-0.7114,-0.7111,-0.7109,-0.7134,-0.7129,-0.712,-0.7119,-0.7118,-0.7117,0,-0.6489,-0.6514,-0.6604,-0.6657,-0.6672,-0.6728,-0.6773,-0.6822,-0.6844,-0.6915,-0.6932,-0.6968,-0.7033,-0.7058,-0.7139,-0.715,-0.7241,-0.7239,-0.7224,-0.7226,-0.7276,-0.7271,-0.7433,-0.7455,-0.7325,-0.7326,-0.7327,0,-0.656,-0.6614,-0.6672,-0.6709,-0.6739,-0.6799,-0.6837,-0.6856,-0.6897,-0.6957,-0.6999,-0.7063,-0.7117,-0.7221,-0.7254,-0.7315,-0.7315,-0.7367,-0.7325,-0.7319,-0.7317,-0.7314,-0.732,-0.7376,-0.7378,-0.7379,-0.738,0,-0.6682,-0.6691,-0.6747,-0.6807,-0.6853,-0.6901,-0.6948,-0.6978,-0.7004,-0.7049,-0.7115,-0.7156,-0.7237,-0.7301,-0.7363,-0.7392,-0.7391,-0.7392,-0.7407,-0.7406,-0.7395,-0.7402,-0.7248,-0.7389,-0.7388,-0.7388,-0.7387,-0.7387,-0.6767,-0.6815,-0.6863,-0.6925,-0.6961,-0.7004,-0.7053,-0.708,-0.7136,-0.7203,-0.721,-0.7281,-0.7329,-0.7412,-0.7443,-0.7499,-0.7485,-0.7507,-0.7513,-0.7518,-0.7522,-0.7384,-0.751,-0.751,-0.751,-0.7509,-0.7509,0,-0.6891,-0.6921,-0.6977,-0.7042,-0.709,-0.7082,-0.7133,-0.7174,-0.7236,-0.728,-0.7332,-0.7407,-0.7469,-0.7506,-0.7567,-0.7605,-0.7605,-0.7621,-0.7619,-0.7626,-0.7531,-0.7512,-0.7619,-0.7619,-0.7619,-0.7619,-0.7619,-0.7619,-0.6961,-0.7041,-0.7056,-0.7153,-0.7183,-0.7252,-0.7282,-0.7321,-0.7357,-0.7441,-0.7492,-0.7515,-0.7556,-0.762,-0.7676,-0.7685,-0.7708,-0.7724,-0.7733,-0.7644,-0.7632,-0.7622,-0.7604,-0.7729,-0.7729,-0.7823,-0.7824,-0.7825]}]]